Погода в Румянцеве

Россия / Ульяновская область     53°31′42″N   46°59′15″E
темп.,
°C
ветер,
м/с
пор.,
м/с
влажн.,
%
обл.,
%
осадки,
мм/ч
давл.,
гПа
погр.,
м
19 апреля, пн
пн1901:00+7всв61267100 0.0 1020403
04:00+6всв51174100 0.0 1021407
07:00+5всв51271100 0.0 1021491
10:00+7всв71060100 0.0 1022721
13:00+8всв8951100 0.0 10211047
16:00+10в81052100 0.0 10211442
19:00+8в81163100 0.0 10211044
22:00+5в7126394 0.0 1023818
20 апреля, вт
вт2001:00+4в71370100 0.0 1024881
04:00+2вюв81487100 0.0 1025730
07:00+3вюв81462100 0.0 1024857
10:00+3вюв91455100 0.0 1026824
13:00+7вюв101348100 0.0 10251081
16:00+9вюв91346100 0.0 10231305
19:00+7вюв91550100 0.0 10221181
22:00+6вюв101751100 0.0 10211001
21 апреля, ср
ср2101:00+5юв111953100 0.0 1019896
04:00+4юв122161100 0.1 1018902
07:00+2юв112188100 1.8 1017853
10:00+2юв101992100 2.4 1018828
13:00+3ююв91693100 0.1 1018702
16:00+4ююв71393100 0.1 1019578
19:00+3юв71296100 0.0 1020531
22:00+3ююв61297100 0.0 1021445
22 апреля, чт
чт2201:00+3ююв51098100 0.5 1021403
04:00+3ююв4998100 0.5 1021323
07:00+4ююв4998100 0.0 1022434
10:00+7ю5885100 0.0 1022543
13:00+13ююз586357 0.0 10221330
16:00+13ю4761100 0.3 1022523
19:00+11ююв587554 0.6 1023289
22:00+7ююв489326 0.8 1025227
23 апреля, пт
пт2301:00+6юв379693 0.0 1024175
04:00+5ююв369389 0.0 1025188
07:00+5ююв259340 0.0 1025145
10:00+9ююв337726 0.0 1025415
13:00+12юв336479 0.0 1023851
16:00+13юв3354100 0.1 10221325
19:00+11юв3567100 0.1 1022372
22:00+8юв358166 0.1 1021143